Location: Newark
(52.4787°S, 179.0532°W)
Time: 19:15:41
(UTC+00:00)

Transit 2A Rocket - Pass Details

Date: 29 November 2019
Orbit: 594 x 909 km, 66.7° (Epoch: 09 December)

Event Time Altitude Azimuth Distance (km) Brightness Sun altitude
Rises 19:43:28 0° 320° (NW) 3,379 8.1 34.9°
Reaches altitude 10° 19:45:51 10° 319° (NW) 2,489 7.5 35.2°
Maximum altitude 19:51:42 83° 231° (SW) 912 5.9 36.1°
Drops below altitude 10° 19:57:54 10° 141° (SE) 2,625 8.2 37.0°
Sets 20:00:28 0° 140° (SE) 3,574 8.8 37.4°
